Location: Plainartige
(45.6866°N, 1.7993°E)
Time: 06:52:02
(UTC+00:00)

COSMOS 2428 - Pass Details

Date: 03 March 2021
Orbit: 846 x 857 km, 70.9° (Epoch: 10 April)

Event Time Altitude Azimuth Distance (km) Brightness Sun altitude
Rises 19:16:14 0° 177° (S) 3,391 5.7 -17.1°
Reaches altitude 10° 19:18:51 10° 168° (SSE) 2,461 4.9 -17.6°
Maximum altitude 19:23:52 34° 105° (ESE) 1,371 3.2 -18.4°
Enters shadow 19:24:48 32° 86° (E) 1,424 3.3 -18.6°
